Location: El Chorro
(10.0985°N, 67.3542°W)
Time: 06:18:49
(UTC+00:00)

Daily predictions for brighter satellites

Satellite Brightness Start Highest point End
(mag) Time Altitude Azimuth Time Altitude Azimuth Time Altitude Azimuth
Cosmos 1656 Rocket 4.1 22:18:45 10° S 22:23:48 40° ESE 22:28:55 10° NE
Tsikada Rocket 4.1 22:17:46 10° N 22:24:08 89° W 22:30:25 10° S
YAOGAN 1 4.3 22:24:05 10° E 22:25:50 12° ENE 22:27:35 10° NE
GPS 2-15 Rocket1 3.9 22:22:38 10° W 22:27:04 40° NNW 22:31:27 10° ENE
Cosmos 2251 Rocket 4.4 22:22:57 10° SSW 22:28:03 54° WNW 22:33:10 10° N
Intelsat 5-1 Rocket 2.7 22:26:37 10° W 22:29:40 47° NNW 22:36:16 10° ENE
ARIANE 3 DEB 3.0 22:29:22 10° WSW 22:31:33 28° S 22:33:30 10° ESE
IRS-P3 4.2 22:31:02 10° SSE 22:36:15 58° ENE 22:41:27 10° N
Cosmos 1833 Rocket 2.8 22:31:33 10° N 22:37:01 51° ENE 22:42:26 10° SSE
Cosmos 1812 4.1 22:34:29 10° SSW 22:37:06 31° W 22:39:43 10° NNW
GPS 2-12 Rocket1 3.0 22:33:41 10° WNW 22:38:15 79° NNE 22:42:52 10° ESE
SJ 16-02 1.7 22:34:12 10° SSW 22:38:28 65° WNW 22:42:43 10° N
Okean 2 Rocket 3.1 22:36:17 10° S 22:40:40 63° E 22:45:01 10° NNE
Ariane H10+ 3.5 22:33:12 10° W 22:41:55 52° SSW 22:44:50 10° ESE
Cosmos 1400 Rocket 2.8 22:43:01 10° S 22:46:50 80° W 22:50:38 10° N
ARIANE 5 R/B 3.1 22:43:25 10° S 22:48:19 60° WSW 22:53:13 10° NNW
BlueWalker 3 4.1 22:54:13 10° WSW 22:56:55 20° NW 22:59:38 10° N
Cosmos 2058 3.3 22:53:21 10° NNE 22:57:01 36° E 23:00:42 10° SSE
Nadezhda 4 Rocket 4.5 22:52:13 10° NNE 22:57:48 35° E 23:03:20 10° SSE
DMSP B5D1-3 4.4 22:55:29 10° NNE 23:00:33 75° ESE 23:05:36 10° S
Ariane H10-3 3.0 22:58:16 10° WSW 23:01:00 46° S 23:08:38 12° ESE
Tiangong -0.1 23:01:30 10° N 23:02:38 15° NNE 23:02:38 15° NNE
Cosmos 1536 Rocket 4.1 23:01:51 10° NNE 23:05:50 34° E 23:09:47 10° SSE
IRAS Rocket 4.4 23:00:37 10° SSE 23:05:59 48° ENE 23:11:19 10° N
DNEPR-1 R/B 4.2 23:01:48 10° NNW 23:07:14 76° ENE 23:13:55 10° SSE
SL-19 R/B 4.4 23:02:50 10° SSE 23:07:58 44° ENE 23:12:53 10° N
Meteor 2-1 Rocket 4.2 23:03:08 10° S 23:08:53 83° E 23:14:46 10° N
SPOT 1/Viking Rocket 3.4 23:08:55 10° SSE 23:14:04 87° ENE 23:19:12 10° N
ARIANE 5 R/B 2.5 23:13:54 10° SW 23:15:43 16° S 23:16:17 15° SSE
Cosmos 2263 4.4 23:14:28 10° S 23:19:50 46° ESE 23:21:54 32° NE
Cosmos 1455 Rocket 2.9 23:16:20 10° S 23:20:36 66° E 23:22:46 28° NNE
SL-4 R/B 1.9 23:17:46 10° NNW 23:21:08 50° NE 23:21:08 50° NE
Cosmos 1634 Rocket 4.0 23:16:25 10° S 23:22:36 58° E 23:28:08 13° NNE
Meteor 1-27 4.5 23:18:37 10° SSE 23:24:03 46° E 23:26:04 33° NE
Cosmos 2297 3.6 23:25:06 10° SSW 23:30:49 89° ESE 23:34:18 25° NNE
USA 215 3.3 23:27:10 15° SE 23:32:25 55° NE 23:38:45 10° NNW
Spot 4 Rocket 4.2 23:27:54 10° S 23:32:58 72° WSW 23:38:02 10° NNW
Cosmos 2369 Rocket 2.2 23:29:15 10° SSW 23:34:48 80° WNW 23:38:09 25° N
Cosmos 968 Rocket 4.1 23:31:49 10° SSW 23:36:45 53° WNW 23:41:01 14° N
Cosmos 1741 Rocket 4.2 23:38:27 10° SSW 23:43:37 68° WNW 23:46:11 30° N
ATLAS 5 CENTAUR R/B 2.3 23:40:11 10° NNW 23:45:57 87° WSW 23:52:47 10° SSE
Yuri Rocket 4.1 23:45:42 10° SW 23:49:24 36° S 23:49:24 36° S
Cosmos 332 Rocket 4.3 23:47:13 10° SSW 23:51:57 57° WNW 23:53:17 42° NNW
